Home > Weather > Ruda Śląska > Past weeks

Flag for Poland Past Weather in Ruda Śląska, Poland — Yesterday and Last 2 Weeks

Now
68 °F

Sunny.


Feels Like: 68 °F
Forecast: 55 / 76 °F
Wind: 1 mph from North

Location: Katowice Airport

Current Time: May 27, 2016 at 8:18:14 PM

Latest Report: May 27, 2016 at 8:00 PM


Visibility: 10 mi

Pressure: 30.01 "Hg

Humidity: 69%

Dew Point: 57 °F

Location of Ruda ŚląskaLocation

Past Weather in Ruda Śląska — Graph

°F

Ruda Śląska Temperature Yesterday

Maximum temperature yesterday: 61 °F (at 5:00 PM)
Minimum temperature yesterday: 48 °F (at 11:30 PM)
Average temperature yesterday: 57 °F

High & Low Weather Summary for the Past Weeks

 TemperatureHumidityPressure
High81 °F (May 23, 1:30 PM)100% (May 14, 12:30 AM)30.09 "Hg (May 14, 12:30 AM)
Low36 °F (May 16, 2:00 AM)26% (May 23, 4:00 PM)29.36 "Hg (May 13, 9:30 AM)
Average56 °F71%29.86 "Hg
* Reported May 12 7:00 PM — May 27 7:00 PM, Ruda Śląska, Weather by CustomWeather, © 2016

Note: Actual official high and low records may vary slightly from our data, if they occured in-between our weather recording intervals... More about our weather records

Advertising

Ruda Śląska Weather History for the Previous 24 Hours

Scroll right to see more
 ConditionsComfort  
Time TempWeatherWind HumidityBarometerVisibility
7:00 PM
Fri, May 27
70 °FSunny.2 mph64%30.01 "Hg10 mi
6:30 PM72 °FSunny.2 mph57%30.01 "Hg10 mi
6:00 PM73 °FSunny.2 mph44%30.01 "Hg10 mi
5:30 PM73 °FPassing clouds.5 mph41%30.01 "HgN/A
5:00 PM73 °FPassing clouds.6 mph44%30.01 "HgN/A
4:30 PM73 °FPassing clouds.6 mph41%30.01 "HgN/A
4:00 PM75 °FSunny.5 mph47%30.01 "Hg10 mi
3:30 PM75 °FSunny.2 mph44%30.01 "Hg10 mi
3:00 PM75 °FPassing clouds.8 mph41%30.04 "HgN/A
2:30 PM75 °FPassing clouds.6 mph47%30.04 "HgN/A
2:00 PM73 °FPassing clouds.8 mph53%30.04 "HgN/A
1:30 PM72 °FPassing clouds.7 mph47%30.04 "HgN/A
1:00 PM72 °FPassing clouds.6 mph53%30.04 "HgN/A
12:30 PM70 °FPassing clouds.7 mph57%30.07 "HgN/A
12:00 PM70 °FPassing clouds.7 mph60%30.07 "HgN/A
11:30 AM68 °FPassing clouds.7 mph60%30.07 "HgN/A
11:00 AM66 °FPassing clouds.10 mph68%30.07 "HgN/A
10:30 AM66 °FPassing clouds.7 mph64%30.07 "HgN/A
10:00 AM64 °FPassing clouds.6 mph68%30.07 "HgN/A
9:30 AM64 °FPassing clouds.5 mph73%30.07 "HgN/A
9:00 AM61 °FPassing clouds.3 mph77%30.07 "HgN/A
8:30 AM61 °FClear.1 mph77%30.07 "Hg5 mi
8:00 AM57 °FFog.2 mph88%30.07 "Hg3 mi
7:30 AM54 °FFog.2 mph94%30.07 "Hg3 mi
7:00 AM50 °FFog.3 mph100%30.07 "Hg2 mi
6:30 AM46 °FFog.2 mph100%30.07 "Hg2 mi
6:00 AM45 °FFog.5 mph100%30.07 "Hg1 mi
5:30 AM43 °FQuite cool.3 mph93%30.07 "Hg1 mi
5:00 AM41 °FFog.2 mph100%30.07 "Hg1 mi
4:30 AM41 °FQuite cool.2 mph100%30.07 "Hg1 mi
4:00 AM41 °FQuite cool.1 mph100%30.07 "Hg1 mi
3:30 AM43 °FQuite cool.1 mph93%30.04 "Hg1 mi
3:00 AM43 °FQuite cool.1 mph100%30.04 "Hg1 mi
2:30 AM43 °FFog.1 mph100%30.04 "Hg1 mi
2:00 AM45 °FQuite cool.3 mph100%30.04 "Hg1 mi
1:30 AM45 °FQuite cool.2 mph100%30.04 "Hg1 mi
1:00 AM45 °FFog.2 mph100%30.07 "Hg1 mi
12:30 AM46 °FCool.1 mph100%30.07 "Hg1 mi
12:00 AM48 °FCool.3 mph100%30.07 "Hg2 mi
11:30 PM
Thu, May 26
48 °FCool.1 mph100%30.07 "Hg1 mi
11:00 PM52 °FFog.2 mph94%30.07 "Hg3 mi
10:30 PM52 °FCool.2 mph94%30.04 "Hg2 mi
10:00 PM54 °FCool.2 mph94%30.04 "Hg2 mi
9:30 PM54 °FFog.2 mph94%30.04 "Hg4 mi
9:00 PM57 °FClear.2 mph88%30.04 "Hg5 mi
8:30 PM59 °FPartly sunny.2 mph82%30.04 "HgN/A
8:00 PM59 °FOvercast.3 mph82%30.04 "HgN/A
Weather by CustomWeather, © 2016

See weather overviewHow to use our weather pages